This is the latest recevied weather packets stored in our database for station/object DL4JCP-6. If no packets are shown the sender has not sent any weather packets the latest 10 day(s).
| Time | Temp. | Humidity | Pressure | Rain* | Wind** | Luminosity | Snow |
|---|---|---|---|---|---|---|---|
| 1777805299 | 23.89° C | 32% | 1017.2 hPa | 0 mm | - | - | - |
| 1777804399 | 23.33° C | 31% | 1017.1 hPa | 0 mm | - | - | - |
| 1777803499 | 23.89° C | 31% | 1017.3 hPa | 0 mm | - | - | - |
| 1777802599 | 23.33° C | 31% | 1017.6 hPa | 0 mm | - | - | - |
| 1777801699 | 23.33° C | 30% | 1017.7 hPa | 0 mm | - | - | - |
| 1777800798 | 23.33° C | 33% | 1017.7 hPa | 0 mm | - | - | - |
| 1777799899 | 22.78° C | 31% | 1017.7 hPa | 0 mm | - | - | - |
| 1777798998 | 23.33° C | 33% | 1017.8 hPa | 0 mm | - | - | - |
| 1777798098 | 23.33° C | 34% | 1017.9 hPa | 0 mm | - | - | - |
| 1777797199 | 22.78° C | 32% | 1017.9 hPa | 0 mm | - | - | - |
| 1777796298 | 22.78° C | 31% | 1018.1 hPa | 0 mm | - | - | - |
| 1777795398 | 22.22° C | 32% | 1018.2 hPa | 0 mm | - | - | - |
| 1777794498 | 22.22° C | 31% | 1018.3 hPa | 0 mm | - | - | - |
| 1777793601 | 21.67° C | 32% | 1018.3 hPa | 0 mm | - | - | - |
| 1777792698 | 21.67° C | 31% | 1018.1 hPa | 0 mm | - | - | - |
| 1777791798 | 21.11° C | 32% | 1018.3 hPa | 0 mm | - | - | - |
| 1777790898 | 20.56° C | 34% | 1018.4 hPa | 0 mm | - | - | - |
| 1777789997 | 20° C | 35% | 1018.3 hPa | 0 mm | - | - | - |
| 1777789098 | 18.89° C | 45% | 1018.4 hPa | 0 mm | - | - | - |
| 1777788197 | 17.22° C | 45% | 1018.1 hPa | 0 mm | - | - | - |
| 1777787297 | 15° C | 53% | 1018 hPa | 0 mm | - | - | - |
| 1777786397 | 13.89° C | 54% | 1018 hPa | 0 mm | - | - | - |
| 1777785500 | 12.78° C | 58% | 1018 hPa | 0 mm | - | - | - |
| 1777784600 | 12.22° C | 57% | 1018.2 hPa | 0 mm | - | - | - |
| 1777783697 | 11.67° C | 55% | 1018.1 hPa | 0 mm | - | - | - |
* Rain latest hour (hover to see other rain measurements)
** Current wind speed in m/s (hover to see current wind gust speed)